Time,TemperatureF,DewpointF,PressureIn,WindDirection,WindDirectionDegrees,WindSpeedMPH,WindSpeedGustMPH,Humidity,HourlyPrecipIn,Conditions,Clouds,dailyrainin,SoftwareType,DateUTC
2013-03-18 00:00:00,27.0,20.1,29.94,SE,141,8.0,16.0,75,0.00,CLR,,0.00,WeatherDisplay:10.37,2013-03-18 05:00:00,
2013-03-18 00:05:00,27.0,20.4,29.93,SE,139,10.0,18.0,76,0.00,CLR,,0.00,WeatherDisplay:10.37,2013-03-18 05:05:00,
2013-03-18 00:10:00,27.0,20.4,29.93,SE,146,3.0,14.0,76,0.00,CLR,,0.00,WeatherDisplay:10.37,2013-03-18 05:10:00,
2013-03-18 00:15:00,27.1,20.5,29.92,SE,145,3.0,18.0,76,0.00,CLR,,0.00,WeatherDisplay:10.37,2013-03-18 05:15:00,
2013-03-18 00:20:00,27.2,20.6,29.92,SE,139,9.0,23.0,76,0.00,CLR,,0.00,WeatherDisplay:10.37,2013-03-18 05:20:00,
2013-03-18 00:25:00,27.3,20.7,29.92,SSE,154,10.0,20.0,76,0.00,CLR,,0.00,WeatherDisplay:10.37,2013-03-18 05:25:00,
2013-03-18 00:30:00,27.5,20.9,29.91,SSE,164,12.0,25.0,76,0.00,CLR,,0.00,WeatherDisplay:10.37,2013-03-18 05:30:00,
2013-03-18 00:35:00,27.5,20.9,29.90,SSE,151,10.0,19.0,76,0.00,CLR,,0.00,WeatherDisplay:10.37,2013-03-18 05:35:00,
2013-03-18 00:40:00,27.6,21.0,29.90,SE,143,6.0,26.0,76,0.00,CLR,,0.00,WeatherDisplay:10.37,2013-03-18 05:40:00,
2013-03-18 00:45:00,27.6,21.0,29.89,SSE,147,7.0,17.0,76,0.00,CLR,,0.00,WeatherDisplay:10.37,2013-03-18 05:45:00,
2013-03-18 00:50:00,27.7,21.4,29.89,SSE,149,3.0,20.0,77,0.00,CLR,,0.00,WeatherDisplay:10.37,2013-03-18 05:50:00,
2013-03-18 00:55:00,27.8,21.5,29.89,SSE,152,13.0,23.0,77,0.00,CLR,,0.00,WeatherDisplay:10.37,2013-03-18 05:55:00,
2013-03-18 01:00:00,27.8,21.5,29.88,SSE,152,9.0,17.0,77,0.00,CLR,,0.00,WeatherDisplay:10.37,2013-03-18 06:00:00,
2013-03-18 01:05:00,27.9,21.6,29.88,SSE,153,14.0,28.0,77,0.00,CLR,,0.00,WeatherDisplay:10.37,2013-03-18 06:05:00,
2013-03-18 01:10:00,28.0,21.7,29.87,SSE,148,7.0,25.0,77,0.00,CLR,,0.00,WeatherDisplay:10.37,2013-03-18 06:10:00,
2013-03-18 01:15:00,28.1,21.8,29.87,SE,141,12.0,20.0,77,0.00,CLR,,0.00,WeatherDisplay:10.37,2013-03-18 06:15:00,
2013-03-18 01:20:00,28.1,21.5,29.86,SE,144,12.0,22.0,76,0.00,CLR,,0.00,WeatherDisplay:10.37,2013-03-18 06:20:00,
2013-03-18 01:25:00,28.1,21.8,29.86,SSE,148,10.0,30.0,77,0.00,CLR,,0.00,WeatherDisplay:10.37,2013-03-18 06:25:00,
2013-03-18 01:30:00,28.3,21.7,29.86,SSE,156,9.0,22.0,76,0.00,CLR,,0.00,WeatherDisplay:10.37,2013-03-18 06:30:00,
2013-03-18 01:35:00,28.3,22.0,29.86,SSE,153,10.0,22.0,77,0.00,CLR,,0.00,WeatherDisplay:10.37,2013-03-18 06:35:00,
2013-03-18 01:40:00,28.4,21.8,29.86,SSE,152,7.0,21.0,76,0.00,CLR,,0.00,WeatherDisplay:10.37,2013-03-18 06:40:00,
2013-03-18 01:45:00,28.4,21.8,29.85,SSE,155,13.0,23.0,76,0.00,CLR,,0.00,WeatherDisplay:10.37,2013-03-18 06:45:00,
2013-03-18 01:50:00,28.5,21.9,29.85,SSE,149,12.0,24.0,76,0.00,CLR,,0.00,WeatherDisplay:10.37,2013-03-18 06:50:00,
2013-03-18 01:55:00,28.5,22.2,29.85,SSE,151,10.0,22.0,77,0.00,CLR,,0.00,WeatherDisplay:10.37,2013-03-18 06:55:00,
2013-03-18 02:00:00,28.6,22.3,29.84,SSE,160,5.0,26.0,77,0.00,CLR,,0.00,WeatherDisplay:10.37,2013-03-18 07:00:00,
2013-03-18 02:05:00,28.7,22.4,29.83,SSE,153,8.0,27.0,77,0.00,CLR,,0.00,WeatherDisplay:10.37,2013-03-18 07:05:00,
2013-03-18 02:10:00,28.8,22.5,29.83,SE,145,15.0,38.0,77,0.00,CLR,,0.00,WeatherDisplay:10.37,2013-03-18 07:10:00,
2013-03-18 02:15:00,28.8,22.5,29.81,SSE,150,10.0,21.0,77,0.00,CLR,,0.00,WeatherDisplay:10.37,2013-03-18 07:15:00,
2013-03-18 02:20:00,28.8,22.5,29.81,SSE,150,13.0,19.0,77,0.00,CLR,,0.00,WeatherDisplay:10.37,2013-03-18 07:20:00,
2013-03-18 02:25:00,28.8,22.5,29.81,SE,142,14.0,25.0,77,0.00,CLR,,0.00,WeatherDisplay:10.37,2013-03-18 07:25:00,
2013-03-18 02:30:00,28.9,22.6,29.80,SE,140,12.0,25.0,77,0.00,CLR,,0.00,WeatherDisplay:10.37,2013-03-18 07:30:00,
2013-03-18 02:35:00,29.0,22.7,29.80,SSE,155,7.0,27.0,77,0.00,CLR,,0.00,WeatherDisplay:10.37,2013-03-18 07:35:00,
2013-03-18 02:40:00,29.0,22.7,29.80,SSE,161,18.0,27.0,77,0.00,CLR,,0.00,WeatherDisplay:10.37,2013-03-18 07:40:00,
2013-03-18 02:45:00,29.1,22.8,29.81,SSE,154,12.0,24.0,77,0.00,CLR,,0.00,WeatherDisplay:10.37,2013-03-18 07:45:00,
2013-03-18 02:50:00,29.1,23.1,29.80,SSE,151,13.0,26.0,78,0.00,CLR,,0.00,WeatherDisplay:10.37,2013-03-18 07:50:00,
2013-03-18 02:55:00,29.1,22.8,29.80,SSE,151,14.0,26.0,77,0.00,CLR,,0.00,WeatherDisplay:10.37,2013-03-18 07:55:00,
2013-03-18 03:00:00,29.0,22.7,29.79,SE,144,14.0,23.0,77,0.00,CLR,,0.00,WeatherDisplay:10.37,2013-03-18 08:00:00,
2013-03-18 03:05:00,28.9,22.6,29.80,SE,136,3.0,17.0,77,0.00,CLR,,0.00,WeatherDisplay:10.37,2013-03-18 08:05:00,
2013-03-18 03:10:00,28.8,22.5,29.80,SE,138,8.0,26.0,77,0.00,CLR,,0.00,WeatherDisplay:10.37,2013-03-18 08:10:00,
2013-03-18 03:15:00,28.8,22.8,29.80,SE,146,12.0,25.0,78,0.00,CLR,,0.00,WeatherDisplay:10.37,2013-03-18 08:15:00,
2013-03-18 03:20:00,28.8,22.8,29.80,SSE,158,3.0,22.0,78,0.00,CLR,,0.00,WeatherDisplay:10.37,2013-03-18 08:20:00,
2013-03-18 03:25:00,28.7,22.7,29.79,SSE,159,7.0,25.0,78,0.00,CLR,,0.00,WeatherDisplay:10.37,2013-03-18 08:25:00,
2013-03-18 03:30:00,28.7,22.7,29.79,SSE,155,7.0,24.0,78,0.00,CLR,,0.00,WeatherDisplay:10.37,2013-03-18 08:30:00,
2013-03-18 03:35:00,28.7,22.7,29.78,SSE,153,3.0,24.0,78,0.00,CLR,,0.00,WeatherDisplay:10.37,2013-03-18 08:35:00,
2013-03-18 03:40:00,28.6,22.6,29.78,SSE,149,10.0,23.0,78,0.00,CLR,,0.00,WeatherDisplay:10.37,2013-03-18 08:40:00,
2013-03-18 03:45:00,28.5,22.5,29.79,SSE,150,9.0,24.0,78,0.00,CLR,,0.00,WeatherDisplay:10.37,2013-03-18 08:45:00,
2013-03-18 03:50:00,28.5,22.5,29.79,SSE,167,10.0,19.0,78,0.00,CLR,,0.00,WeatherDisplay:10.37,2013-03-18 08:50:00,
2013-03-18 03:55:00,28.4,22.4,29.79,SSE,166,3.0,17.0,78,0.00,CLR,,0.00,WeatherDisplay:10.37,2013-03-18 08:55:00,
2013-03-18 04:00:00,28.4,22.4,29.79,SSE,152,10.0,23.0,78,0.00,CLR,,0.00,WeatherDisplay:10.37,2013-03-18 09:00:00,
2013-03-18 04:05:00,28.2,22.5,29.79,SSE,157,2.0,24.0,79,0.00,CLR,,0.00,WeatherDisplay:10.37,2013-03-18 09:05:00,
2013-03-18 04:10:00,28.1,22.7,29.78,SSE,167,6.0,17.0,80,0.00,CLR,,0.00,WeatherDisplay:10.37,2013-03-18 09:10:00,
2013-03-18 04:15:00,27.9,22.5,29.78,SSE,168,2.0,14.0,80,0.00,CLR,,0.00,WeatherDisplay:10.37,2013-03-18 09:15:00,
2013-03-18 04:20:00,27.7,22.6,29.78,SSE,166,8.0,18.0,81,0.00,CLR,,0.00,WeatherDisplay:10.37,2013-03-18 09:20:00,
2013-03-18 04:25:00,27.4,22.9,29.78,SSE,163,5.0,18.0,83,0.00,CLR,,0.00,WeatherDisplay:10.37,2013-03-18 09:25:00,
2013-03-18 04:30:00,27.1,22.9,29.78,SSE,161,13.0,18.0,84,0.00,CLR,,0.00,WeatherDisplay:10.37,2013-03-18 09:30:00,
2013-03-18 04:35:00,26.9,23.3,29.78,SSE,166,5.0,16.0,86,0.00,CLR,,0.00,WeatherDisplay:10.37,2013-03-18 09:35:00,
2013-03-18 04:40:00,26.7,23.4,29.77,SSE,162,3.0,16.0,87,0.00,CLR,,0.00,WeatherDisplay:10.37,2013-03-18 09:40:00,
2013-03-18 04:45:00,26.6,23.3,29.77,SSE,153,2.0,18.0,87,0.00,CLR,,0.00,WeatherDisplay:10.37,2013-03-18 09:45:00,
2013-03-18 04:50:00,26.5,23.4,29.77,SE,146,5.0,16.0,88,0.00,CLR,,0.00,WeatherDisplay:10.37,2013-03-18 09:50:00,
2013-03-18 04:55:00,26.3,23.5,29.77,SSE,156,1.0,16.0,89,0.00,CLR,,0.00,WeatherDisplay:10.37,2013-03-18 09:55:00,
2013-03-18 05:00:00,26.3,23.5,29.76,SSE,163,2.0,14.0,89,0.00,CLR,,0.00,WeatherDisplay:10.37,2013-03-18 10:00:00,
2013-03-18 05:05:00,26.3,23.5,29.76,SE,145,5.0,17.0,89,0.00,CLR,,0.00,WeatherDisplay:10.37,2013-03-18 10:05:00,
2013-03-18 05:10:00,26.2,23.4,29.76,SE,145,1.0,13.0,89,0.00,CLR,,0.00,WeatherDisplay:10.37,2013-03-18 10:10:00,
2013-03-18 05:15:00,26.2,23.7,29.75,SSE,158,2.0,16.0,90,0.00,CLR,,0.00,WeatherDisplay:10.37,2013-03-18 10:15:00,
2013-03-18 05:20:00,26.2,23.7,29.76,SSE,159,3.0,13.0,90,0.00,CLR,,0.00,WeatherDisplay:10.37,2013-03-18 10:20:00,
2013-03-18 05:25:00,26.2,23.7,29.75,SSE,149,3.0,12.0,90,0.00,CLR,,0.00,WeatherDisplay:10.37,2013-03-18 10:25:00,
2013-03-18 05:30:00,26.2,23.7,29.75,SE,145,5.0,13.0,90,0.00,CLR,,0.00,WeatherDisplay:10.37,2013-03-18 10:30:00,
2013-03-18 05:35:00,26.3,23.8,29.75,SSE,148,2.0,5.0,90,0.00,CLR,,0.00,WeatherDisplay:10.37,2013-03-18 10:35:00,
2013-03-18 05:40:00,26.3,23.8,29.75,SSE,153,2.0,5.0,90,0.00,CLR,,0.00,WeatherDisplay:10.37,2013-03-18 10:40:00,
2013-03-18 05:45:00,26.4,23.9,29.75,SSE,158,2.0,11.0,90,0.00,CLR,,0.00,WeatherDisplay:10.37,2013-03-18 10:45:00,
2013-03-18 05:50:00,26.4,23.9,29.74,SSE,153,6.0,14.0,90,0.00,CLR,,0.00,WeatherDisplay:10.37,2013-03-18 10:50:00,
2013-03-18 05:55:00,26.4,24.1,29.74,SSE,151,1.0,14.0,91,0.00,CLR,,0.00,WeatherDisplay:10.37,2013-03-18 10:55:00,
2013-03-18 06:00:00,26.4,24.1,29.74,SSE,159,1.0,15.0,91,0.00,CLR,,0.00,WeatherDisplay:10.37,2013-03-18 11:00:00,
2013-03-18 06:05:00,26.4,24.1,29.74,SSE,162,2.0,5.0,91,0.00,CLR,,0.00,WeatherDisplay:10.37,2013-03-18 11:05:00,
2013-03-18 06:10:00,26.5,24.2,29.74,SE,143,2.0,14.0,91,0.00,CLR,,0.00,WeatherDisplay:10.37,2013-03-18 11:10:00,
2013-03-18 06:15:00,26.5,24.2,29.74,SE,143,1.0,5.0,91,0.00,CLR,,0.00,WeatherDisplay:10.37,2013-03-18 11:15:00,
2013-03-18 06:20:00,26.5,24.2,29.74,SE,146,1.0,12.0,91,0.00,CLR,,0.00,WeatherDisplay:10.37,2013-03-18 11:20:00,
2013-03-18 06:30:00,26.5,24.2,29.73,ESE,123,12.7,12.7,91,0.00,CLR,,0.00,WeatherDisplay:10.37,2013-03-18 11:30:00,
2013-03-18 06:35:00,26.5,24.2,29.73,SE,144,3.5,3.5,91,0.00,CLR,,0.00,WeatherDisplay:10.37,2013-03-18 11:35:00,
2013-03-18 06:40:00,26.5,24.2,29.72,SSE,148,8.1,8.1,91,0.00,CLR,,0.00,WeatherDisplay:10.37,2013-03-18 11:40:00,
2013-03-18 06:45:00,26.6,24.3,29.72,SSE,158,3.5,3.5,91,0.00,CLR,,0.00,WeatherDisplay:10.37,2013-03-18 11:45:00,
2013-03-18 06:50:00,26.6,24.3,29.72,SE,140,9.2,9.2,91,0.00,CLR,,0.00,WeatherDisplay:10.37,2013-03-18 11:50:00,
2013-03-18 06:55:00,26.6,24.3,29.72,ESE,113,3.5,3.5,91,0.00,CLR,,0.00,WeatherDisplay:10.37,2013-03-18 11:55:00,
2013-03-18 07:00:00,26.6,24.3,29.71,SSW,192,9.0,9.0,91,0.00,CLR,,0.00,WeatherDisplay:10.37,2013-03-18 12:00:00,
2013-03-18 07:05:00,26.7,24.4,29.71,SE,132,4.6,4.6,91,0.00,CLR,,0.00,WeatherDisplay:10.37,2013-03-18 12:05:00,
2013-03-18 07:10:00,26.7,24.4,29.70,ESE,122,12.7,12.7,91,0.00,CLR,,0.00,WeatherDisplay:10.37,2013-03-18 12:10:00,
2013-03-18 07:15:00,26.7,24.4,29.70,SE,138,2.3,2.3,91,0.00,CLR,,0.00,WeatherDisplay:10.37,2013-03-18 12:15:00,
2013-03-18 07:21:00,26.7,24.4,29.70,ESE,123,4.6,4.6,91,0.00,CLR,,0.00,WeatherDisplay:10.37,2013-03-18 12:21:00,
2013-03-18 07:26:00,26.7,24.4,29.70,South,190,10.4,10.4,91,0.00,CLR,,0.00,WeatherDisplay:10.37,2013-03-18 12:26:00,
2013-03-18 07:31:00,26.8,24.5,29.70,SSW,213,4.6,4.6,91,0.00,CLR,,0.00,WeatherDisplay:10.37,2013-03-18 12:31:00,
2013-03-18 07:36:00,26.9,24.6,29.70,South,174,10.4,10.4,91,0.00,CLR,,0.00,WeatherDisplay:10.37,2013-03-18 12:36:00,
2013-03-18 07:41:00,27.0,24.7,29.70,South,169,3.5,3.5,91,0.00,CLR,,0.00,WeatherDisplay:10.37,2013-03-18 12:41:00,
2013-03-18 07:46:00,27.0,24.7,29.69,SSE,153,11.5,11.5,91,0.00,CLR,,0.00,WeatherDisplay:10.37,2013-03-18 12:46:00,
2013-03-18 07:51:00,27.2,24.9,29.69,South,175,3.5,3.5,91,0.00,CLR,,0.00,WeatherDisplay:10.37,2013-03-18 12:51:00,
2013-03-18 07:56:00,27.3,25.0,29.69,SSE,165,15.0,15.0,91,0.00,CLR,,0.00,WeatherDisplay:10.37,2013-03-18 12:56:00,
2013-03-18 08:01:00,27.4,25.1,29.69,SE,134,2.3,2.3,91,0.00,CLR,,0.00,WeatherDisplay:10.37,2013-03-18 13:01:00,
2013-03-18 08:06:00,27.5,25.2,29.68,SE,145,3.5,3.5,91,0.00,CLR,,0.00,WeatherDisplay:10.37,2013-03-18 13:06:00,
2013-03-18 08:11:00,27.6,25.3,29.68,SSE,153,3.5,3.5,91,0.00,CLR,,0.00,WeatherDisplay:10.37,2013-03-18 13:11:00,
2013-03-18 08:17:00,27.7,25.4,29.68,South,187,4.6,4.6,91,0.00,CLR,,0.00,WeatherDisplay:10.37,2013-03-18 13:17:00,
2013-03-18 08:22:00,27.8,25.8,29.68,SSW,195,4.6,4.6,92,0.00,CLR,,0.00,WeatherDisplay:10.37,2013-03-18 13:22:00,
2013-03-18 08:27:00,27.9,25.6,29.68,SSE,153,11.5,11.5,91,0.00,CLR,,0.00,WeatherDisplay:10.37,2013-03-18 13:27:00,
2013-03-18 08:32:00,28.1,25.8,29.68,South,178,12.7,12.7,91,0.00,CLR,,0.00,WeatherDisplay:10.37,2013-03-18 13:32:00,
2013-03-18 08:37:00,28.2,26.2,29.68,SSE,156,3.5,3.7,92,0.00,CLR,,0.00,WeatherDisplay:10.37,2013-03-18 13:37:00,
2013-03-18 08:42:00,28.3,26.3,29.68,SSW,211,3.5,3.5,92,0.00,CLR,,0.00,WeatherDisplay:10.37,2013-03-18 13:42:00,
2013-03-18 08:47:00,28.4,26.4,29.67,SSE,162,3.5,3.5,92,0.00,CLR,,0.00,WeatherDisplay:10.37,2013-03-18 13:47:00,
2013-03-18 08:52:00,28.5,26.5,29.67,SSW,210,2.3,2.3,92,0.00,CLR,,0.00,WeatherDisplay:10.37,2013-03-18 13:52:00,
2013-03-18 08:57:00,28.7,26.7,29.67,South,186,13.8,13.8,92,0.00,CLR,,0.00,WeatherDisplay:10.37,2013-03-18 13:57:00,
2013-03-18 09:02:00,28.8,26.8,29.67,SSW,196,5.8,5.8,92,0.00,CLR,,0.00,WeatherDisplay:10.37,2013-03-18 14:02:00,
2013-03-18 09:07:00,28.9,26.9,29.67,WSW,255,4.6,4.6,92,0.00,CLR,,0.00,WeatherDisplay:10.37,2013-03-18 14:07:00,
2013-03-18 20:30:00,13.3,7.1,29.84,WNW,287,15.0,29.0,76,0.00,CLR,,0.00,WeatherDisplay:10.37,2013-03-19 01:30:00,
2013-03-18 20:35:00,13.1,7.2,29.84,WNW,288,8.0,22.0,77,0.00,CLR,,0.00,WeatherDisplay:10.37,2013-03-19 01:35:00,
2013-03-18 20:40:00,13.0,7.4,29.85,WNW,285,9.0,24.0,78,0.00,CLR,,0.00,WeatherDisplay:10.37,2013-03-19 01:40:00,
2013-03-18 20:45:00,13.0,7.1,29.85,WNW,284,12.0,27.0,77,0.00,CLR,,0.00,WeatherDisplay:10.37,2013-03-19 01:45:00,
2013-03-18 20:50:00,12.8,7.2,29.85,WNW,284,7.0,20.0,78,0.00,CLR,,0.00,WeatherDisplay:10.37,2013-03-19 01:50:00,
2013-03-18 20:55:00,12.8,7.2,29.85,WNW,291,12.0,24.0,78,0.00,CLR,,0.00,WeatherDisplay:10.37,2013-03-19 01:55:00,
2013-03-18 21:05:00,12.7,6.9,29.86,WNW,295,8.0,19.0,77,0.00,CLR,,0.00,WeatherDisplay:10.37,2013-03-19 02:05:00,
2013-03-18 21:10:00,12.6,6.8,29.86,WNW,291,5.0,18.0,77,0.00,CLR,,0.00,WeatherDisplay:10.37,2013-03-19 02:10:00,
2013-03-18 21:15:00,12.5,6.7,29.87,WNW,289,6.0,18.0,77,0.00,CLR,,0.00,WeatherDisplay:10.37,2013-03-19 02:15:00,
2013-03-18 21:20:00,12.4,6.6,29.87,WNW,289,3.0,19.0,77,0.00,CLR,,0.00,WeatherDisplay:10.37,2013-03-19 02:20:00,
2013-03-18 21:25:00,12.3,6.5,29.87,WNW,292,12.0,21.0,77,0.00,CLR,,0.00,WeatherDisplay:10.37,2013-03-19 02:25:00,
2013-03-18 21:30:00,12.2,6.7,29.87,WNW,291,8.0,18.0,78,0.00,CLR,,0.00,WeatherDisplay:10.37,2013-03-19 02:30:00,
2013-03-18 21:35:00,12.3,6.5,29.88,WNW,287,8.0,26.0,77,0.00,CLR,,0.00,WeatherDisplay:10.37,2013-03-19 02:35:00,
2013-03-18 21:40:00,12.3,6.5,29.88,WNW,289,3.0,24.0,77,0.00,CLR,,0.00,WeatherDisplay:10.37,2013-03-19 02:40:00,
2013-03-18 21:45:00,12.2,6.4,29.88,WNW,288,14.0,21.0,77,0.00,CLR,,0.00,WeatherDisplay:10.37,2013-03-19 02:45:00,
2013-03-18 21:50:00,12.1,6.3,29.88,WNW,286,10.0,21.0,77,0.00,CLR,,0.00,WeatherDisplay:10.37,2013-03-19 02:50:00,
2013-03-18 21:55:00,12.1,6.3,29.88,WNW,290,6.0,18.0,77,0.00,CLR,,0.00,WeatherDisplay:10.37,2013-03-19 02:55:00,
2013-03-18 22:00:00,12.1,6.3,29.89,WNW,290,12.0,33.0,77,0.00,CLR,,0.00,WeatherDisplay:10.37,2013-03-19 03:00:00,
2013-03-18 22:05:00,12.1,6.3,29.89,WNW,290,12.0,21.0,77,0.00,CLR,,0.00,WeatherDisplay:10.37,2013-03-19 03:05:00,
2013-03-18 22:10:00,12.1,6.3,29.89,WNW,292,6.0,22.0,77,0.00,CLR,,0.00,WeatherDisplay:10.37,2013-03-19 03:10:00,
2013-03-18 22:15:00,12.0,6.2,29.89,WNW,294,9.0,20.0,77,0.00,CLR,,0.00,WeatherDisplay:10.37,2013-03-19 03:15:00,
2013-03-18 22:20:00,11.9,6.1,29.90,WNW,298,13.0,19.0,77,0.00,CLR,,0.00,WeatherDisplay:10.37,2013-03-19 03:20:00,
2013-03-18 22:25:00,11.9,5.8,29.89,WNW,295,15.0,29.0,76,0.00,CLR,,0.00,WeatherDisplay:10.37,2013-03-19 03:25:00,
2013-03-18 22:35:00,11.9,5.8,29.90,WNW,288,9.0,23.0,76,0.00,CLR,,0.00,WeatherDisplay:10.37,2013-03-19 03:35:00,
2013-03-18 22:45:00,11.8,5.4,29.90,WNW,292,10.0,20.0,75,0.00,CLR,,0.00,WeatherDisplay:10.37,2013-03-19 03:45:00,
2013-03-18 22:50:00,11.8,5.4,29.90,WNW,292,13.0,25.0,75,0.00,CLR,,0.00,WeatherDisplay:10.37,2013-03-19 03:50:00,
2013-03-18 23:05:00,11.5,4.8,29.90,WNW,302,6.0,31.0,74,0.00,CLR,,0.00,WeatherDisplay:10.37,2013-03-19 04:05:00,
2013-03-18 23:15:00,11.4,4.7,29.90,WNW,292,8.0,17.0,74,0.00,CLR,,0.00,WeatherDisplay:10.37,2013-03-19 04:15:00,
2013-03-18 23:20:00,11.3,4.9,29.90,WNW,292,9.0,15.0,75,0.00,CLR,,0.00,WeatherDisplay:10.37,2013-03-19 04:20:00,
2013-03-18 23:25:00,11.3,4.9,29.90,WNW,292,10.0,24.0,75,0.00,CLR,,0.00,WeatherDisplay:10.37,2013-03-19 04:25:00,
2013-03-18 23:35:00,11.1,4.4,29.90,WNW,290,12.0,23.0,74,0.00,CLR,,0.00,WeatherDisplay:10.37,2013-03-19 04:35:00,
2013-03-18 23:40:00,11.0,4.3,29.90,WNW,290,13.0,30.0,74,0.00,CLR,,0.00,WeatherDisplay:10.37,2013-03-19 04:40:00,
2013-03-18 23:45:00,11.0,4.3,29.91,WNW,292,6.0,21.0,74,0.00,CLR,,0.00,WeatherDisplay:10.37,2013-03-19 04:45:00,
2013-03-18 23:55:00,10.7,4.3,29.91,WNW,292,6.0,20.0,75,0.00,CLR,,0.00,WeatherDisplay:10.37,2013-03-19 04:55:00,